Вернуться в каталог

INTELSAT 33E DEB

АктивенMEO
NORAD 64396·DEBRIS· XX

Запущен Aug 24, 2016 с Guiana Space Centre

Loading…

Ближайшие Пролёты (ближайшие 24 часа)

TLE

СвежийSource: Space-Track

Эпоха: Sep 13, 2026, 14:21 UTC

1 64396U 16053AA  26256.59826177  .00000001  00000-0  00000-0 0  9990
2 64396   1.8049  81.4040 0121677  65.3151 296.7568  0.98613057  6855

Отслеживайте INTELSAT 33E DEB в реальном времени с AllMySat

Download on the App Store